• Processing (Info)

  • MPEC 2010-T87 : 2010 TV54

    The following Minor Planet Electronic Circular may be linked-to from your own Web pages, but must not otherwise be redistributed electronically.

    A form allowing access to any MPEC is at the bottom of this page.


    Read MPEC 2010-T86 Read MPEC 2010-T88


    M.P.E.C. 2010-T87                                Issued 2010 Oct. 12, 20:44 UT
    
         The Minor Planet Electronic Circulars contain information on unusual
             minor planets and routine data on comets.  They are published
       on behalf of Commission 20 of the International Astronomical Union by the
              Minor Planet Center, Smithsonian Astrophysical Observatory,
                              Cambridge, MA 02138, U.S.A.
    
                 Prepared using the Tamkin Foundation Computer Network
    
                                  MPC@CFA.HARVARD.EDU
           URL https://www.minorplanetcenter.org/iau/mpc.html  ISSN 1523-6714
    
                                       2010 TV54
    
    Observations:
         K10T54V* C2010 10 11.32040 01 26 35.73 +16 24 33.6          19.9 V ET087G96
         K10T54V  C2010 10 11.32683 01 26 37.64 +16 24 30.2          20.6 V ET087G96
         K10T54V  C2010 10 11.33963 01 26 41.60 +16 24 21.2          20.6 V ET087G96
         K10T54V  C2010 10 11.36455 01 26 48.90 +16 23 59.7          20.1 R ET087H01
         K10T54V  C2010 10 11.36937 01 26 50.41 +16 23 56.1          20.3 R ET087H01
         K10T54V  C2010 10 11.37537 01 26 52.29 +16 23 51.5          20.1 R ET087H01
         K10T54V  C2010 10 11.38331 01 26 54.78 +16 23 45.4          20.2 R ET087H01
         K10T54V  C2010 10 12.27228 01 32 59.55 +16 11 49.3          20.9 V ET087291
         K10T54V  C2010 10 12.27619 01 33 01.13 +16 11 45.8          21.0 V ET087291
         K10T54V  C2010 10 12.28013 01 33 02.75 +16 11 42.2          20.6 V ET087291
         K10T54V  C2010 10 12.30721 01 33 13.71 +16 11 15.5          20.1 V ET087G96
         K10T54V  C2010 10 12.31404 01 33 16.48 +16 11 08.8          20.3 V ET087G96
         K10T54V  C2010 10 12.32086 01 33 19.29 +16 11 02.1          19.9 V ET087G96
         K10T54V  C2010 10 12.32766 01 33 22.10 +16 10 55.5          20.3 V ET087G96
    
    Observer details:
    291 LPL/Spacewatch II.  Observer T. H. Bressi.  1.8-m f/2.7 reflector + CCD.
    G96 Mt. Lemmon Survey.  Observer E. Beshore.  Measurers J. D. Ahern,
        E. C. Beshore, A. Boattini, G. J. Garradd, A. R. Gibbs, A. D. Grauer,
        R. E. Hill, R. A. Kowalski, S. M. Larson, R. H. McNaught.  1.5-m reflector
        + CCD.
    H01 Magdalena Ridge Observatory, Socorro.  Observer W. H. Ryan.  2.4-m f/8.9
        reflector + CCD.
    
    Orbital elements:
    2010 TV54                                                Earth MOID = 0.0067 AU
    Epoch 2010 July 23.0 TT = JDT 2455400.5                 MPC
    M 311.36160              (2000.0)            P               Q
    n   0.36653492     Peri.  255.10192     -0.12887463     -0.99079460
    a   1.9337151      Node   202.42871     +0.94647315     -0.11042341
    e   0.6195429      Incl.    6.23565     +0.29593901     -0.07831174
    P   2.69           H   25.5           G   0.15           U   8
    Residuals in seconds of arc
    101011 G96  0.2+  1.0-    101011 H01  0.1+  0.3+    101012 G96  0.3+  0.2-
    101011 G96  0.5-  0.0     101011 H01  0.1-  0.3+    101012 G96  0.2-  0.3-
    101011 G96  0.1+  0.1-    101012 291  0.1+  0.1+    101012 G96  0.2-  0.3-
    101011 H01  0.1+  0.3+    101012 291  0.1-  0.1+    101012 G96  0.1-  0.2-
    101011 H01  0.1+  0.3+    101012 291  0.1+  0.1+
    
    Ephemeris:
    2010 TV54                a,e,i = 1.93, 0.62, 6                   q = 0.7357
    Date    TT    R. A. (2000) Decl.     Delta      r     Elong.  Phase     V
    2010 10 11    01 24.80   +16 28.5    0.0741   1.071   169.1    10.1    20.6
    2010 10 12    01 30.95   +16 16.6    0.0646   1.062   169.3    10.0    20.3
    2010 10 13    01 39.17   +15 59.1    0.0552   1.052   169.2    10.2    20.0
    2010 10 14    01 50.67   +15 32.0    0.0459   1.043   168.5    11.0    19.6
    2010 10 15    02 07.79   +14 47.0    0.0368   1.033   166.4    13.1    19.2
    2010 10 16    02 35.49   +13 22.9    0.0281   1.024   161.6    17.9    18.7
    2010 10 17    03 25.55   +10 19.9    0.0201   1.014   150.6    28.8    18.3
    2010 10 18    05 04.07   +02 52.8    0.0142   1.005   126.5    52.8    18.2
    2010 10 19    07 37.67   -09 19.2    0.0134   0.996    87.5    91.7    19.4
    2010 10 20    09 36.84   -15 56.2    0.0185   0.986    58.8   120.3    21.7
    2010 10 21    10 38.39   -17 44.6    0.0261   0.977    44.9   134.1    23.7
    
    Sonia Keys                   (C) Copyright 2010 MPC           M.P.E.C. 2010-T87
    

    Read MPEC 2010-T86 Read MPEC 2010-T88


    MPEC number:

    Enter an MPEC number in one of the following forms:

    • 1997-B01 (the full form)
    • J97B01 (the packed version of the full form)
    • B01 (the abbreviated form)